Powrót do katalogu

PEGASUS DEB

AktywnyPO
NORAD 27679·DEBRIS·🇺🇸 United States

Wystrzelony May 19, 1994 z Vandenberg Space Force Base

Loading…

Następne Przeloty (najbliższe 24 godziny)

TLE

ŚwieżeSource: Space-Track

Epoka: Sep 13, 2026, 09:38 UTC

1 27679U 94029AEJ 26256.40207576  .00001209  00000-0  26325-3 0  9990
2 27679  81.9766 299.3582 0292614 330.4814  28.0116 14.34039129279197

Śledź PEGASUS DEB w czasie rzeczywistym z AllMySat

Download on the App Store